#timestamp,LO_Frequency,Hit,StdDev 
1582930815.1,286047019.4,N
1582930816.0,286047019.4,N
1582930835.8,286047019.8,N
1582930855.7,286047016.5,N
1582930875.5,286047019.8,N
1582930895.4,286047022.5,Y
1582930915.2,286047006.4,P
1582930935.0,286047007.1,N
1582930935.9,286047007.1,N
1582930955.8,286047003.8,N
1582930975.6,286046997.4,N
1582930995.4,286046990.5,N
1582931015.3,286046996.1,N
1582931035.1,286047002.1,N
1582931055.9,286047002.9,N
1582931075.7,286046999.3,N
1582931095.5,286047000.1,N
1582931115.4,286046997.9,N
1582931135.2,286046988.4,N
1582931155.0,286046982.5,N
1582931155.9,286046982.5,N
1582931175.8,286046977.9,N
1582931195.6,286046975.2,N
1582931215.4,286046967.3,N
1582931235.3,286046964.1,N
1582931255.1,286046957.5,Y
1582931275.9,286046962.6,P
1582931295.7,286046954.3,N
1582931315.5,286046948.6,P
1582931335.4,286046943.5,Y
1582931355.2,286046983.1,P
1582931375.1,286046987.5,N
1582931376.0,286046987.5,N
1582931395.8,286046983.5,N
1582931415.6,286046978.0,N
1582931435.5,286046980.4,N
1582931455.3,286046986.9,N
1582931475.1,286046993.9,N
1582931495.9,286046998.2,N
1582931515.7,286047005.4,N
1582931535.6,286047008.8,N
1582931555.4,286047012.0,N
1582931575.2,286047014.4,N
1582931595.1,286047015.9,N
1582931596.0,286047015.9,N
1582931615.8,286047004.1,N
1582931635.6,286046999.3,N
1582931655.5,286046993.0,N
1582931675.3,286046984.6,N
1582931695.2,286046980.1,N
1582931715.9,286046981.5,N
1582931735.7,286046985.1,N
1582931755.6,286046993.0,N
1582931775.4,286047005.6,N
1582931795.2,286047002.9,N
1582931815.1,286046992.7,N
1582931816.0,286046992.7,N
1582931835.8,286046983.4,N
1582931855.7,286046973.4,N
1582931875.5,286046963.0,N
1582931895.3,286046962.0,N
1582931915.2,286046954.5,Y
1582931935.0,286046957.1,P
1582931935.9,286046957.1,N
1582931955.8,286046953.3,N
1582931975.6,286046950.3,Y
1582931995.4,286046989.7,P
1582932015.3,286046980.2,N
1582932035.1,286046975.4,N
1582932055.9,286046969.5,Y
1582932075.7,286046991.0,P
1582932095.5,286046984.3,N
1582932115.4,286046986.2,N
1582932135.2,286046987.9,N
1582932155.1,286046980.9,Y
1582932156.0,286046980.9,P
1582932175.8,286046993.3,N
1582932195.6,286047004.4,N
1582932215.5,286047003.8,N
1582932235.3,286046996.1,N
1582932255.1,286046986.9,N
1582932275.9,286046979.1,N
1582932295.7,286046970.6,Y
1582932315.6,286046974.6,P
1582932335.4,286046974.7,P
1582932355.2,286046976.8,N
1582932375.1,286046970.7,Y
1582932376.0,286046970.7,P
1582932395.8,286046991.5,N
1582932415.7,286046991.6,N
1582932435.5,286046995.7,N
1582932455.3,286047001.5,N
1582932475.2,286047013.7,N
1582932495.0,286047029.3,N
1582932495.9,286047029.3,N
1582932515.8,286047037.6,N
1582932535.6,286047043.9,N
1582932555.4,286047050.7,N
1582932575.3,286047044.7,N
1582932595.1,286047041.9,N
1582932615.8,286047032.0,N
1582932635.7,286047027.9,N
1582932655.5,286047022.0,N
1582932675.4,286047017.8,N
1582932695.2,286047010.0,N
1582932715.0,286047011.0,N
1582932715.9,286047011.0,N
1582932735.8,286047002.3,N
1582932755.6,286046996.7,N
1582932775.5,286046991.4,N
1582932795.3,286046984.2,N
1582932815.1,286046983.6,N
1582932835.9,286046978.8,N
1582932855.7,286046974.3,N
1582932875.5,286046969.3,N
1582932895.4,286046974.1,N
1582932915.2,286046978.4,N
1582932935.1,286046991.8,N
1582932936.0,286046991.8,N
1582932955.8,286047000.4,N
1582932975.6,286047002.2,N
1582932995.5,286047007.9,N
1582933015.3,286047008.6,N
1582933035.2,286046999.2,N
1582933055.9,286046990.4,N
1582933075.7,286046994.2,N
1582933095.6,286046988.2,N
1582933115.4,286046984.4,N
1582933135.2,286046990.2,N
1582933155.1,286046985.4,N
1582933156.0,286046985.4,N
1582933175.8,286046985.7,N
1582933195.7,286046978.2,N
1582933215.5,286043340.3,Y
1582933235.3,286043343.2,P
1582933255.2,286043330.8,N
1582933275.0,286043325.2,N
1582933275.9,286043325.2,N
1582933295.7,286043332.4,N
1582933315.6,286043336.9,N
1582933335.4,286043330.9,N
1582933355.3,286043323.4,Y
1582933375.1,286046539.7,P
1582933395.8,286046536.5,N
1582933415.7,286046538.9,N
1582933435.5,286046533.7,N
1582933455.4,286046509.3,N
1582933475.2,286046532.7,N
1582933495.0,286046532.0,N
1582933495.9,286046532.0,N
1582933515.8,286046505.6,N
1582933535.6,286046522.4,N
1582933555.4,286046523.3,N
1582933575.3,286046527.6,N
1582933595.1,286046527.0,N
1582933615.9,286050189.5,Y
1582933635.7,286050847.9,P
1582933655.5,286050839.8,N
1582933675.4,286050851.9,N
1582933695.2,286050832.0,N
1582933715.0,286050825.9,N
1582933715.9,286050825.9,N
1582933735.8,286050839.2,N
1582933755.6,286050828.0,N
1582933775.5,286050824.3,N
1582933795.3,286050824.4,N
1582933815.1,286050821.0,N
1582933835.9,286050819.4,Y
1582933855.7,286047370.7,P
1582933875.5,286047368.7,N
1582933895.4,286047362.1,N
1582933915.2,286047366.7,N
1582933935.1,286047368.4,N
1582933936.0,286047368.4,N
1582933955.8,286047370.0,N
1582933975.6,286047369.1,N
1582933995.5,286047367.0,N
1582934015.3,286047365.2,N
1582934035.1,286047366.9,N
1582934055.9,286047368.8,N
1582934075.7,286047364.0,N
1582934095.6,286047356.5,N
1582934115.4,286047355.0,N
1582934135.2,286047363.9,N
1582934155.1,286047366.1,N
1582934156.0,286047366.1,N
1582934175.8,286047367.1,N
1582934195.6,286047374.7,N
1582934215.5,286047380.6,N
1582934235.3,286047383.5,N
1582934255.2,286047367.1,N
1582934275.9,286047370.6,N
1582934295.7,286047377.1,N
1582934315.6,286047370.9,N
1582934335.4,286047365.3,N
1582934355.2,286047365.4,N
1582934375.1,286047375.5,N
1582934376.0,286047375.5,N
1582934395.8,286047373.2,Y
